Location: Wiesbaden
(50.0830°N, 8.2500°E)
Time: 08:44:13
(UTC+01:00)

ISS - Pass Details

Date: 10 December 2018
Orbit: 401 x 408 km, 51.6° (Epoch: 12 December)

Event Time Altitude Azimuth Distance (km) Brightness Sun altitude
Rises 17:27:08 0° 287° (WNW) 2,321 0.9 -9.5°
Reaches altitude 10° 17:29:13 10° 285° (WNW) 1,459 -0.2 -9.8°
Maximum altitude 17:32:28 69° 201° (SSW) 435 -3.5 -10.2°
Drops below altitude 10° 17:35:42 10° 118° (ESE) 1,452 -1.4 -10.7°
Enters shadow 17:36:19 - 117° (ESE) 1,702 -1.0 -10.8°
